Tracking 27188 objects as of 1-Apr-2023
HD Live streaming from Space Station
objects crossing your sky now

STARLINK-5740

Track STARLINK-5740 now!
10-day predictions
STARLINK-5740 is classified as:


NORAD ID: 55595
Int'l Code: 2023-020AC
Perigee: 565.2 km
Apogee: 567.2 km
Inclination: 43.0 °
Period: 95.8 minutes
Semi major axis: 6937 km
RCS: Unknown
Launch date: February 12, 2023
Source: United States (US)
Launch site: AIR FORCE EASTERN TEST RANGE (AFETR)
Your satellite tracking list
Your tracking list is empty




NASA's NSSDC Master Catalog

Two Line Element Set (TLE):
1 55595U 23020AC  23090.66668981 -.00018172  00000-0 -13332-2 0  9995
2 55595  42.9997  80.2749 0001474 262.7885  34.1899 15.02548543  7362
Source of the keplerian elements: AFSPC